| time (UTC) | temp F | wind direction | speed MPH | gust MPH | rain 1hr in | rain 24hr in | rain mn in | humidity % | barometer mb |
| 20260508213044 | 98 | 86 | 5.0 | 16.0 | 0.00 | 0.00 | 0.00 | 71 | 1006.8 |
| 20260508212540 | 98 | 38 | 4.0 | 13.0 | 0.00 | 0.00 | 0.00 | 72 | 1006.8 |
| 20260508212038 | 98 | 344 | 6.0 | 13.0 | 0.00 | 0.00 | 0.00 | 73 | 1006.9 |
| 20260508211554 | 98 | 55 | 3.0 | 12.0 | 0.00 | 0.00 | 0.00 | 72 | 1007.0 |
| 20260508211040 | 98 | 83 | 4.0 | 12.0 | 0.00 | 0.00 | 0.00 | 72 | 1007.0 |
| 20260508210540 | 99 | 64 | 4.0 | 13.0 | 0.00 | 0.00 | 0.00 | 72 | 1007.1 |
| 20260508210107 | 99 | 129 | 4.0 | 13.0 | 0.00 | 0.00 | 0.00 | 72 | 1007.2 |
| 20260508205538 | 99 | 45 | 3.0 | 13.0 | 0.00 | 0.00 | 0.00 | 72 | 1007.3 |
| 20260508205039 | 99 | 95 | 5.0 | 10.0 | 0.00 | 0.00 | 0.00 | 73 | 1007.4 |
| 20260508204549 | 99 | 62 | 3.0 | 9.0 | 0.00 | 0.00 | 0.00 | 72 | 1007.4 |
| 20260508204040 | 99 | 111 | 5.0 | 10.0 | 0.00 | 0.00 | 0.00 | 72 | 1007.6 |
| 20260508203540 | 99 | 100 | 3.0 | 10.0 | 0.00 | 0.00 | 0.00 | 72 | 1007.6 |
| 20260508203048 | 99 | 111 | 6.0 | 10.0 | 0.00 | 0.00 | 0.00 | 73 | 1007.6 |
| 20260508202538 | 98 | 0 | 1.0 | 10.0 | 0.00 | 0.00 | 0.00 | 73 | 1007.6 |
| 20260508202043 | 99 | 77 | 6.0 | 10.0 | 0.00 | 0.00 | 0.00 | 73 | 1007.7 |
| 20260508201550 | 99 | 0 | 2.0 | 9.0 | 0.00 | 0.00 | 0.00 | 73 | 1007.8 |
| 20260508201037 | 99 | 76 | 4.0 | 9.0 | 0.00 | 0.00 | 0.00 | 74 | 1007.8 |
| 20260508200540 | 97 | 36 | 4.0 | 9.0 | 0.00 | 0.00 | 0.00 | 75 | 1008.0 |
| 20260508200050 | 96 | 108 | 1.0 | 9.0 | 0.00 | 0.00 | 0.00 | 76 | 1008.1 |
| 20260508195539 | 97 | 86 | 4.0 | 9.0 | 0.00 | 0.00 | 0.00 | 74 | 1008.2 |
| 20260508195037 | 98 | 0 | 2.0 | 10.0 | 0.00 | 0.00 | 0.00 | 74 | 1008.2 |
| 20260508194547 | 98 | 61 | 2.0 | 10.0 | 0.00 | 0.00 | 0.00 | 74 | 1008.3 |
| 20260508194039 | 99 | 52 | 3.0 | 8.0 | 0.00 | 0.00 | 0.00 | 73 | 1008.3 |
| 20260508193539 | 98 | 24 | 2.0 | 7.0 | 0.00 | 0.00 | 0.00 | 74 | 1008.4 |
| 20260508193054 | 98 | 279 | 0.0 | 7.0 | 0.00 | 0.00 | 0.00 | 74 | 1008.5 |
| 20260508192540 | 97 | 51 | 1.0 | 9.0 | 0.00 | 0.00 | 0.00 | 74 | 1008.6 |
| 20260508192042 | 98 | 44 | 2.0 | 10.0 | 0.00 | 0.00 | 0.00 | 74 | 1008.7 |
| 20260508191548 | 98 | 57 | 4.0 | 10.0 | 0.00 | 0.00 | 0.00 | 74 | 1008.8 |
| 20260508191037 | 97 | 331 | 2.0 | 9.0 | 0.00 | 0.00 | 0.00 | 75 | 1008.8 |
| 20260508190540 | 96 | 147 | 3.0 | 9.0 | 0.00 | 0.00 | 0.00 | 75 | 1008.9 |
| 20260508190053 | 96 | 121 | 3.0 | 9.0 | 0.00 | 0.00 | 0.00 | 75 | 1009.0 |
| 20260508185540 | 97 | 157 | 4.0 | 8.0 | 0.00 | 0.00 | 0.00 | 75 | 1009.0 |
| 20260508185040 | 97 | 116 | 3.0 | 10.0 | 0.00 | 0.00 | 0.00 | 76 | 1009.0 |
| 20260508184609 | 97 | 85 | 4.0 | 10.0 | 0.00 | 0.00 | 0.00 | 76 | 1009.1 |
| 20260508184039 | 97 | 128 | 3.0 | 7.0 | 0.00 | 0.00 | 0.00 | 75 | 1009.2 |
| 20260508183539 | 97 | 292 | 2.0 | 8.0 | 0.00 | 0.00 | 0.00 | 75 | 1009.3 |
| 20260508183053 | 95 | 0 | 2.0 | 8.0 | 0.00 | 0.00 | 0.00 | 76 | 1009.4 |
| 20260508182539 | 96 | 112 | 3.0 | 8.0 | 0.00 | 0.00 | 0.00 | 75 | 1009.6 |
| 20260508182039 | 95 | 56 | 1.0 | 6.0 | 0.00 | 0.00 | 0.00 | 76 | 1009.6 |
| 20260508181605 | 95 | 0 | 1.0 | 6.0 | 0.00 | 0.00 | 0.00 | 77 | 1009.7 |
| 20260508181039 | 95 | 308 | 2.0 | 6.0 | 0.00 | 0.00 | 0.00 | 76 | 1009.8 |
| 20260508180540 | 95 | 58 | 1.0 | 5.0 | 0.00 | 0.00 | 0.00 | 76 | 1009.9 |
| 20260508180052 | 95 | 355 | 1.0 | 6.0 | 0.00 | 0.00 | 0.00 | 77 | 1009.9 |
| 20260508175540 | 95 | 120 | 1.0 | 7.0 | 0.00 | 0.00 | 0.00 | 77 | 1009.9 |
| 20260508175039 | 94 | 82 | 2.0 | 7.0 | 0.00 | 0.00 | 0.00 | 77 | 1010.0 |
| 20260508174547 | 95 | 45 | 1.0 | 6.0 | 0.00 | 0.00 | 0.00 | 77 | 1010.1 |
| 20260508174052 | 95 | 163 | 2.0 | 6.0 | 0.00 | 0.00 | 0.00 | 77 | 1010.1 |
| 20260508173542 | 94 | 93 | 1.0 | 7.0 | 0.00 | 0.00 | 0.00 | 78 | 1010.1 |
| 20260508173051 | 94 | 111 | 2.0 | 7.0 | 0.00 | 0.00 | 0.00 | 78 | 1010.1 |
| 20260508172540 | 94 | 118 | 2.0 | 6.0 | 0.00 | 0.00 | 0.00 | 79 | 1010.2 |
| 20260508172039 | 92 | 74 | 2.0 | 7.0 | 0.00 | 0.00 | 0.00 | 80 | 1010.3 |
| 20260508171547 | 93 | 184 | 3.0 | 7.0 | 0.00 | 0.00 | 0.00 | 79 | 1010.3 |
| 20260508171042 | 93 | 221 | 0.0 | 4.0 | 0.00 | 0.00 | 0.00 | 79 | 1010.5 |
| 20260508170540 | 93 | 207 | 1.0 | 6.0 | 0.00 | 0.00 | 0.00 | 79 | 1010.4 |
| 20260508170051 | 93 | 0 | 2.0 | 8.0 | 0.00 | 0.00 | 0.00 | 78 | 1010.6 |
| 20260508165540 | 93 | 125 | 3.0 | 8.0 | 0.00 | 0.00 | 0.00 | 78 | 1010.7 |
| 20260508165036 | 92 | 109 | 2.0 | 7.0 | 0.00 | 0.00 | 0.00 | 79 | 1010.8 |
| 20260508164557 | 92 | 188 | 3.0 | 7.0 | 0.00 | 0.00 | 0.00 | 79 | 1011.0 |
| 20260508164040 | 92 | 144 | 1.0 | 7.0 | 0.00 | 0.00 | 0.00 | 79 | 1010.9 |
| 20260508163542 | 92 | 99 | 3.0 | 8.0 | 0.00 | 0.00 | 0.00 | 80 | 1011.0 |
| 20260508163046 | 91 | 5 | 3.0 | 8.0 | 0.00 | 0.00 | 0.00 | 80 | 1011.1 |
| 20260508162539 | 91 | 34 | 2.0 | 5.0 | 0.00 | 0.00 | 0.00 | 81 | 1011.1 |
| 20260508162040 | 91 | 144 | 1.0 | 5.0 | 0.00 | 0.00 | 0.00 | 81 | 1011.1 |
| 20260508161549 | 91 | 151 | 1.0 | 4.0 | 0.00 | 0.00 | 0.00 | 81 | 1011.3 |
| 20260508161039 | 91 | 309 | 2.0 | 8.0 | 0.00 | 0.00 | 0.00 | 81 | 1011.2 |
| 20260508160538 | 91 | 60 | 3.0 | 8.0 | 0.00 | 0.00 | 0.00 | 82 | 1011.3 |
| 20260508160047 | 90 | 97 | 1.0 | 7.0 | 0.00 | 0.00 | 0.00 | 83 | 1011.3 |
| 20260508155537 | 90 | 25 | 2.0 | 7.0 | 0.00 | 0.00 | 0.00 | 83 | 1011.3 |
| 20260508155042 | 89 | 150 | 3.0 | 7.0 | 0.00 | 0.00 | 0.00 | 83 | 1011.4 |
| 20260508154549 | 89 | 55 | 3.0 | 8.0 | 0.00 | 0.00 | 0.00 | 83 | 1011.4 |
| 20260508154039 | 89 | 58 | 3.0 | 8.0 | 0.00 | 0.00 | 0.00 | 84 | 1011.5 |
| 20260508153540 | 89 | 67 | 2.0 | 7.0 | 0.00 | 0.00 | 0.00 | 83 | 1011.5 |
| 20260508153053 | 89 | 170 | 3.0 | 8.0 | 0.00 | 0.00 | 0.00 | 84 | 1011.5 |
| 20260508152539 | 88 | 64 | 4.0 | 8.0 | 0.00 | 0.00 | 0.00 | 85 | 1011.5 |
| 20260508152036 | 87 | 105 | 2.0 | 6.0 | 0.00 | 0.00 | 0.00 | 86 | 1011.5 |
| 20260508151601 | 88 | 0 | 2.0 | 7.0 | 0.00 | 0.00 | 0.00 | 85 | 1011.5 |
| 20260508151038 | 88 | 134 | 2.0 | 7.0 | 0.00 | 0.00 | 0.00 | 85 | 1011.6 |
| 20260508150539 | 87 | 159 | 3.0 | 7.0 | 0.00 | 0.00 | 0.00 | 86 | 1011.6 |
| 20260508150100 | 87 | 126 | 3.0 | 7.0 | 0.00 | 0.00 | 0.00 | 85 | 1011.6 |
| 20260508145536 | 87 | 0 | 2.0 | 7.0 | 0.00 | 0.00 | 0.00 | 86 | 1011.6 |
| 20260508145040 | 86 | 87 | 3.0 | 6.0 | 0.00 | 0.00 | 0.00 | 87 | 1011.6 |
| 20260508144609 | 86 | 110 | 1.0 | 6.0 | 0.00 | 0.00 | 0.00 | 88 | 1011.6 |
| 20260508144044 | 86 | 0 | 2.0 | 6.0 | 0.00 | 0.00 | 0.00 | 88 | 1011.6 |
| 20260508143540 | 86 | 113 | 3.0 | 6.0 | 0.00 | 0.00 | 0.00 | 88 | 1011.5 |
| 20260508143053 | 85 | 0 | 2.0 | 7.0 | 0.00 | 0.00 | 0.00 | 89 | 1011.5 |
| 20260508142537 | 85 | 98 | 2.0 | 9.0 | 0.00 | 0.00 | 0.00 | 88 | 1011.6 |
| 20260508142040 | 85 | 142 | 2.0 | 9.0 | 0.00 | 0.00 | 0.00 | 88 | 1011.6 |
| 20260508141552 | 85 | 110 | 2.0 | 9.0 | 0.00 | 0.00 | 0.00 | 88 | 1011.5 |
| 20260508141039 | 85 | 119 | 2.0 | 6.0 | 0.00 | 0.00 | 0.00 | 89 | 1011.4 |
| 20260508140536 | 84 | 57 | 2.0 | 8.0 | 0.00 | 0.00 | 0.00 | 89 | 1011.5 |
| 20260508140056 | 84 | 111 | 3.0 | 8.0 | 0.00 | 0.00 | 0.00 | 89 | 1011.4 |
| 20260508135540 | 84 | 98 | 4.0 | 7.0 | 0.00 | 0.00 | 0.00 | 88 | 1011.2 |
| 20260508135042 | 84 | 66 | 3.0 | 7.0 | 0.00 | 0.00 | 0.00 | 89 | 1011.3 |
| 20260508134553 | 84 | 121 | 3.0 | 7.0 | 0.00 | 0.00 | 0.00 | 90 | 1011.4 |
| 20260508134039 | 84 | 128 | 3.0 | 6.0 | 0.00 | 0.00 | 0.00 | 91 | 1011.2 |
| 20260508133539 | 84 | 0 | 1.0 | 4.0 | 0.00 | 0.00 | 0.00 | 92 | 1011.1 |
| 20260508133114 | 83 | 0 | 1.0 | 3.0 | 0.00 | 0.00 | 0.00 | 92 | 1011.0 |
| 20260508132541 | 83 | 54 | 0.0 | 3.0 | 0.00 | 0.00 | 0.00 | 93 | 1011.0 |
| 20260508132039 | 82 | 0 | 1.0 | 3.0 | 0.00 | 0.00 | 0.00 | 94 | 1010.9 |
| 20260508131549 | 82 | 324 | 0.0 | 3.0 | 0.00 | 0.00 | 0.00 | 94 | 1010.9 |
| 20260508131039 | 82 | 351 | 0.0 | 3.0 | 0.00 | 0.00 | 0.00 | 95 | 1010.8 |
| 20260508130537 | 82 | 22 | 1.0 | 4.0 | 0.00 | 0.00 | 0.00 | 95 | 1010.8 |
| 20260508130049 | 82 | 290 | 1.0 | 4.0 | 0.00 | 0.00 | 0.00 | 95 | 1010.9 |
| 20260508125540 | 82 | 318 | 2.0 | 5.0 | 0.00 | 0.00 | 0.00 | 95 | 1010.9 |
| 20260508125040 | 82 | 15 | 1.0 | 5.0 | 0.00 | 0.00 | 0.00 | 95 | 1010.8 |
| 20260508124548 | 82 | 355 | 1.0 | 4.0 | 0.00 | 0.00 | 0.00 | 95 | 1010.7 |
| 20260508124036 | 82 | 314 | 2.0 | 5.0 | 0.00 | 0.00 | 0.00 | 95 | 1010.8 |
| 20260508123539 | 82 | 347 | 2.0 | 5.0 | 0.00 | 0.00 | 0.00 | 95 | 1010.7 |
| 20260508123059 | 82 | 5 | 2.0 | 5.0 | 0.00 | 0.00 | 0.00 | 95 | 1010.5 |
| 20260508122541 | 82 | 303 | 2.0 | 5.0 | 0.00 | 0.00 | 0.00 | 94 | 1010.5 |
| 20260508122039 | 82 | 340 | 1.0 | 4.0 | 0.00 | 0.00 | 0.00 | 94 | 1010.5 |
| 20260508121548 | 82 | 360 | 1.0 | 4.0 | 0.00 | 0.00 | 0.00 | 94 | 1010.4 |
| 20260508121035 | 82 | 316 | 2.0 | 4.0 | 0.00 | 0.00 | 0.00 | 94 | 1010.3 |
| 20260508120540 | 82 | 317 | 1.0 | 3.0 | 0.00 | 0.00 | 0.00 | 94 | 1010.2 |
| 20260508120052 | 82 | 348 | 1.0 | 3.0 | 0.00 | 0.00 | 0.00 | 93 | 1010.1 |
| 20260508115540 | 83 | 344 | 1.0 | 3.0 | 0.00 | 0.00 | 0.00 | 93 | 1009.9 |
| 20260508115039 | 83 | 321 | 1.0 | 3.0 | 0.00 | 0.00 | 0.00 | 93 | 1010.0 |
| 20260508114554 | 83 | 315 | 1.0 | 3.0 | 0.00 | 0.00 | 0.00 | 93 | 1009.9 |
| 20260508114040 | 83 | 338 | 0.0 | 4.0 | 0.00 | 0.00 | 0.00 | 93 | 1009.8 |
| 20260508113540 | 82 | 0 | 1.0 | 4.0 | 0.00 | 0.00 | 0.00 | 92 | 1009.8 |
| 20260508113106 | 82 | 0 | 0.0 | 2.0 | 0.00 | 0.00 | 0.00 | 92 | 1009.6 |
| 20260508112539 | 82 | 0 | 0.0 | 2.0 | 0.00 | 0.00 | 0.00 | 92 | 1009.6 |
| 20260508112039 | 82 | 0 | 0.0 | 4.0 | 0.00 | 0.00 | 0.00 | 92 | 1009.5 |
| 20260508111600 | 82 | 0 | 0.0 | 4.0 | 0.00 | 0.00 | 0.00 | 92 | 1009.5 |
| 20260508111037 | 82 | 0 | 1.0 | 4.0 | 0.00 | 0.00 | 0.00 | 92 | 1009.4 |
| 20260508110539 | 82 | 42 | 1.0 | 4.0 | 0.00 | 0.00 | 0.00 | 92 | 1009.3 |
| 20260508110058 | 82 | 0 | 0.0 | 0.0 | 0.00 | 0.00 | 0.00 | 92 | 1009.4 |
| 20260508105539 | 82 | 0 | 0.0 | 0.0 | 0.00 | 0.00 | 0.00 | 92 | 1009.3 |
| 20260508105040 | 82 | 0 | 0.0 | 0.0 | 0.00 | 0.00 | 0.00 | 92 | 1009.3 |
| 20260508104550 | 82 | 0 | 0.0 | 2.0 | 0.00 | 0.00 | 0.00 | 92 | 1009.3 |
| 20260508104039 | 82 | 0 | 0.0 | 2.0 | 0.00 | 0.00 | 0.00 | 92 | 1009.4 |
| 20260508103540 | 82 | 0 | 0.0 | 3.0 | 0.00 | 0.00 | 0.00 | 93 | 1009.2 |
| 20260508103057 | 82 | 0 | 0.0 | 3.0 | 0.00 | 0.00 | 0.00 | 93 | 1009.1 |
| 20260508102539 | 82 | 0 | 0.0 | 1.0 | 0.00 | 0.00 | 0.00 | 93 | 1009.2 |
| 20260508102040 | 82 | 0 | 0.0 | 3.0 | 0.00 | 0.00 | 0.00 | 93 | 1009.2 |
| 20260508101551 | 82 | 0 | 0.0 | 4.0 | 0.00 | 0.00 | 0.00 | 93 | 1009.2 |
| 20260508101040 | 82 | 190 | 0.0 | 4.0 | 0.00 | 0.00 | 0.00 | 93 | 1009.2 |
| 20260508100540 | 82 | 187 | 1.0 | 4.0 | 0.00 | 0.00 | 0.00 | 93 | 1009.1 |
| 20260508100049 | 82 | 178 | 0.0 | 5.0 | 0.00 | 0.00 | 0.00 | 93 | 1009.1 |
| 20260508095539 | 82 | 0 | 1.0 | 5.0 | 0.00 | 0.00 | 0.00 | 93 | 1009.1 |
| 20260508095043 | 82 | 0 | 1.0 | 4.0 | 0.00 | 0.00 | 0.00 | 93 | 1009.0 |
| 20260508094546 | 82 | 0 | 1.0 | 4.0 | 0.00 | 0.00 | 0.00 | 93 | 1009.0 |
| 20260508094039 | 82 | 0 | 0.0 | 3.0 | 0.00 | 0.00 | 0.00 | 93 | 1008.9 |
| 20260508093541 | 82 | 143 | 0.0 | 3.0 | 0.00 | 0.00 | 0.00 | 93 | 1008.7 |
| 20260508093049 | 82 | 190 | 0.0 | 2.0 | 0.00 | 0.00 | 0.00 | 94 | 1008.8 |
| 20260508092539 | 82 | 0 | 0.0 | 4.0 | 0.00 | 0.00 | 0.00 | 94 | 1008.7 |
| 20260508092039 | 82 | 0 | 0.0 | 4.0 | 0.00 | 0.00 | 0.00 | 94 | 1008.6 |
| 20260508091553 | 82 | 171 | 0.0 | 3.0 | 0.00 | 0.00 | 0.00 | 94 | 1008.7 |
| 20260508091039 | 82 | 103 | 0.0 | 4.0 | 0.00 | 0.00 | 0.00 | 94 | 1008.7 |
| 20260508090540 | 82 | 0 | 1.0 | 5.0 | 0.00 | 0.00 | 0.00 | 94 | 1008.6 |
| 20260508090100 | 82 | 109 | 2.0 | 8.0 | 0.00 | 0.00 | 0.00 | 94 | 1008.4 |
| 20260508085540 | 82 | 5 | 2.0 | 8.0 | 0.00 | 0.00 | 0.00 | 94 | 1008.3 |
| 20260508085038 | 82 | 111 | 2.0 | 7.0 | 0.00 | 0.00 | 0.00 | 94 | 1008.4 |
| 20260508084547 | 82 | 76 | 2.0 | 8.0 | 0.00 | 0.00 | 0.00 | 94 | 1008.5 |
| 20260508084040 | 83 | 58 | 2.0 | 9.0 | 0.00 | 0.00 | 0.00 | 94 | 1008.5 |
| 20260508083540 | 83 | 88 | 2.0 | 9.0 | 0.00 | 0.00 | 0.00 | 94 | 1008.5 |
| 20260508083054 | 83 | 76 | 3.0 | 9.0 | 0.00 | 0.00 | 0.00 | 94 | 1008.5 |
| 20260508082539 | 83 | 14 | 3.0 | 9.0 | 0.00 | 0.00 | 0.00 | 94 | 1008.6 |
| 20260508082039 | 83 | 25 | 2.0 | 9.0 | 0.00 | 0.00 | 0.00 | 94 | 1008.5 |
| 20260508081558 | 83 | 63 | 4.0 | 9.0 | 0.00 | 0.00 | 0.00 | 94 | 1008.6 |
| 20260508081040 | 83 | 48 | 1.0 | 8.0 | 0.00 | 0.00 | 0.00 | 94 | 1008.7 |
| 20260508080539 | 83 | 79 | 2.0 | 8.0 | 0.00 | 0.00 | 0.00 | 94 | 1008.8 |
| 20260508080052 | 83 | 41 | 1.0 | 4.0 | 0.00 | 0.00 | 0.00 | 94 | 1008.9 |
| 20260508075539 | 83 | 84 | 1.0 | 5.0 | 0.00 | 0.00 | 0.00 | 94 | 1009.1 |
| 20260508075039 | 83 | 60 | 1.0 | 5.0 | 0.00 | 0.00 | 0.00 | 94 | 1009.0 |
| 20260508074546 | 83 | 38 | 1.0 | 6.0 | 0.00 | 0.00 | 0.00 | 94 | 1009.0 |
| 20260508074039 | 83 | 56 | 1.0 | 6.0 | 0.00 | 0.00 | 0.00 | 94 | 1009.1 |
| 20260508073542 | 83 | 38 | 3.0 | 6.0 | 0.00 | 0.00 | 0.00 | 94 | 1009.2 |
| 20260508073052 | 83 | 35 | 1.0 | 7.0 | 0.00 | 0.00 | 0.00 | 94 | 1009.3 |
| 20260508072539 | 83 | 59 | 2.0 | 7.0 | 0.00 | 0.00 | 0.00 | 94 | 1009.4 |
| 20260508072040 | 83 | 329 | 2.0 | 8.0 | 0.00 | 0.00 | 0.00 | 94 | 1009.4 |
| 20260508071554 | 83 | 48 | 2.0 | 9.0 | 0.00 | 0.00 | 0.00 | 94 | 1009.6 |
| 20260508071038 | 83 | 61 | 3.0 | 9.0 | 0.00 | 0.00 | 0.00 | 94 | 1009.7 |
| 20260508070536 | 83 | 49 | 3.0 | 8.0 | 0.00 | 0.00 | 0.00 | 94 | 1009.8 |
| 20260508070053 | 83 | 92 | 2.0 | 6.0 | 0.00 | 0.00 | 0.00 | 94 | 1009.9 |
| 20260508065542 | 83 | 53 | 1.0 | 7.0 | 0.00 | 0.00 | 0.00 | 94 | 1010.2 |
| 20260508065039 | 83 | 0 | 0.0 | 8.0 | 0.00 | 0.00 | 0.00 | 94 | 1010.3 |
| 20260508064555 | 83 | 44 | 3.0 | 8.0 | 0.00 | 0.00 | 0.00 | 94 | 1010.4 |
| 20260508064044 | 83 | 22 | 3.0 | 8.0 | 0.00 | 0.00 | 0.00 | 93 | 1010.6 |
| 20260508063540 | 83 | 53 | 2.0 | 6.0 | 0.00 | 0.00 | 0.00 | 93 | 1010.7 |
| 20260508063049 | 83 | 59 | 2.0 | 7.0 | 0.00 | 0.00 | 0.00 | 93 | 1010.7 |
| 20260508062539 | 83 | 5 | 2.0 | 7.0 | 0.00 | 0.00 | 0.00 | 93 | 1010.8 |
| 20260508062040 | 83 | 59 | 2.0 | 6.0 | 0.00 | 0.00 | 0.00 | 93 | 1010.7 |
| 20260508061551 | 83 | 74 | 2.0 | 7.0 | 0.00 | 0.00 | 0.00 | 92 | 1010.8 |
| 20260508061039 | 83 | 91 | 3.0 | 7.0 | 0.00 | 0.00 | 0.00 | 92 | 1010.8 |
| 20260508060536 | 83 | 67 | 3.0 | 7.0 | 0.00 | 0.00 | 0.00 | 92 | 1011.0 |
| 20260508060050 | 84 | 86 | 3.0 | 7.0 | 0.00 | 0.00 | 0.00 | 92 | 1011.1 |
| 20260508055539 | 84 | 50 | 3.0 | 7.0 | 0.00 | 0.00 | 0.00 | 91 | 1011.0 |
| 20260508055039 | 84 | 76 | 3.0 | 10.0 | 0.00 | 0.00 | 0.00 | 91 | 1011.1 |
| 20260508054548 | 84 | 66 | 4.0 | 10.0 | 0.00 | 0.00 | 0.00 | 91 | 1011.1 |
| 20260508054039 | 84 | 86 | 5.0 | 10.0 | 0.00 | 0.00 | 0.00 | 90 | 1011.1 |
| 20260508053541 | 84 | 45 | 3.0 | 10.0 | 0.00 | 0.00 | 0.00 | 90 | 1011.0 |
| 20260508053113 | 84 | 346 | 4.0 | 11.0 | 0.00 | 0.00 | 0.00 | 90 | 1011.1 |
| 20260508052537 | 84 | 74 | 6.0 | 11.0 | 0.00 | 0.00 | 0.00 | 89 | 1011.0 |
| 20260508052040 | 85 | 84 | 3.0 | 10.0 | 0.00 | 0.00 | 0.00 | 87 | 1010.9 |
| 20260508051554 | 85 | 71 | 3.0 | 9.0 | 0.00 | 0.00 | 0.00 | 87 | 1010.9 |
| 20260508051039 | 86 | 56 | 2.0 | 12.0 | 0.00 | 0.00 | 0.00 | 86 | 1010.9 |
| 20260508050539 | 86 | 5 | 3.0 | 12.0 | 0.00 | 0.00 | 0.00 | 86 | 1010.9 |
| 20260508050054 | 86 | 40 | 4.0 | 12.0 | 0.00 | 0.00 | 0.00 | 85 | 1010.8 |
| 20260508045538 | 86 | 23 | 4.0 | 11.0 | 0.00 | 0.00 | 0.00 | 84 | 1010.8 |
| 20260508045039 | 87 | 74 | 3.0 | 11.0 | 0.00 | 0.00 | 0.00 | 83 | 1010.6 |
| 20260508044543 | 87 | 38 | 4.0 | 11.0 | 0.00 | 0.00 | 0.00 | 82 | 1010.6 |
| 20260508044040 | 87 | 51 | 4.0 | 10.0 | 0.00 | 0.00 | 0.00 | 82 | 1010.5 |
| 20260508043542 | 88 | 47 | 4.0 | 10.0 | 0.00 | 0.00 | 0.00 | 81 | 1010.6 |
| 20260508043054 | 88 | 59 | 5.0 | 10.0 | 0.00 | 0.00 | 0.00 | 80 | 1010.5 |
| 20260508042540 | 88 | 111 | 3.0 | 7.0 | 0.00 | 0.00 | 0.00 | 79 | 1010.6 |
| 20260508042037 | 88 | 73 | 2.0 | 9.0 | 0.00 | 0.00 | 0.00 | 78 | 1010.5 |
| 20260508041611 | 88 | 76 | 3.0 | 9.0 | 0.00 | 0.00 | 0.00 | 78 | 1010.4 |
| 20260508041039 | 89 | 93 | 3.0 | 10.0 | 0.00 | 0.00 | 0.00 | 77 | 1010.3 |
| 20260508040537 | 89 | 41 | 4.0 | 10.0 | 0.00 | 0.00 | 0.00 | 77 | 1010.4 |
| 20260508040105 | 89 | 46 | 3.0 | 8.0 | 0.00 | 0.00 | 0.00 | 77 | 1010.4 |
| 20260508035539 | 89 | 19 | 2.0 | 8.0 | 0.00 | 0.00 | 0.00 | 76 | 1010.3 |
| 20260508035038 | 89 | 85 | 3.0 | 7.0 | 0.00 | 0.00 | 0.00 | 76 | 1010.2 |
| 20260508034549 | 88 | 46 | 3.0 | 7.0 | 0.00 | 0.00 | 0.00 | 78 | 1010.1 |
| 20260508034042 | 89 | 73 | 1.0 | 5.0 | 0.00 | 0.00 | 0.00 | 79 | 1010.0 |
| 20260508033538 | 89 | 44 | 1.0 | 5.0 | 0.00 | 0.00 | 0.00 | 79 | 1010.0 |
| 20260508033047 | 89 | 0 | 0.0 | 4.0 | 0.00 | 0.00 | 0.00 | 79 | 1010.0 |
| 20260508032539 | 89 | 0 | 1.0 | 4.0 | 0.00 | 0.00 | 0.00 | 79 | 1009.9 |
| 20260508032037 | 89 | 315 | 2.0 | 4.0 | 0.00 | 0.00 | 0.00 | 79 | 1010.0 |
| 20260508031549 | 89 | 81 | 1.0 | 4.0 | 0.00 | 0.00 | 0.00 | 79 | 1010.0 |
| 20260508031039 | 89 | 0 | 0.0 | 4.0 | 0.00 | 0.00 | 0.00 | 79 | 1010.0 |
| 20260508030539 | 89 | 80 | 0.0 | 4.0 | 0.00 | 0.00 | 0.00 | 79 | 1010.0 |
| 20260508030047 | 89 | 0 | 0.0 | 2.0 | 0.00 | 0.00 | 0.00 | 79 | 1009.9 |
| 20260508025540 | 89 | 0 | 0.0 | 2.0 | 0.00 | 0.00 | 0.00 | 79 | 1009.8 |
| 20260508025039 | 89 | 0 | 0.0 | 3.0 | 0.00 | 0.00 | 0.00 | 79 | 1009.9 |
| 20260508024553 | 89 | 0 | 0.0 | 3.0 | 0.00 | 0.00 | 0.00 | 79 | 1009.8 |
| 20260508024041 | 89 | 0 | 0.0 | 3.0 | 0.00 | 0.00 | 0.00 | 79 | 1009.8 |
| 20260508023539 | 89 | 57 | 0.0 | 4.0 | 0.00 | 0.00 | 0.00 | 79 | 1009.8 |
| 20260508023051 | 89 | 0 | 0.0 | 4.0 | 0.00 | 0.00 | 0.00 | 79 | 1009.8 |
| 20260508022543 | 89 | 331 | 0.0 | 4.0 | 0.00 | 0.00 | 0.00 | 79 | 1009.8 |
| 20260508022042 | 89 | 355 | 1.0 | 5.0 | 0.00 | 0.00 | 0.00 | 79 | 1009.8 |
| 20260508021550 | 89 | 104 | 2.0 | 6.0 | 0.00 | 0.00 | 0.00 | 79 | 1009.7 |
| 20260508021042 | 90 | 17 | 1.0 | 6.0 | 0.00 | 0.00 | 0.00 | 79 | 1009.6 |
| 20260508020545 | 90 | 55 | 1.0 | 5.0 | 0.00 | 0.00 | 0.00 | 80 | 1009.5 |
| 20260508020049 | 90 | 0 | 1.0 | 5.0 | 0.00 | 0.00 | 0.00 | 79 | 1009.5 |
| 20260508015540 | 90 | 31 | 0.0 | 4.0 | 0.00 | 0.00 | 0.00 | 80 | 1009.3 |
| 20260508015041 | 91 | 313 | 1.0 | 8.0 | 0.00 | 0.00 | 0.00 | 80 | 1009.4 |
| 20260508014550 | 91 | 0 | 0.0 | 8.0 | 0.00 | 0.00 | 0.00 | 80 | 1009.2 |
| 20260508014042 | 91 | 0 | 2.0 | 8.0 | 0.00 | 0.00 | 0.00 | 80 | 1009.1 |
| 20260508013541 | 91 | 24 | 0.0 | 9.0 | 0.00 | 0.00 | 0.00 | 80 | 1009.1 |
| 20260508013051 | 91 | 0 | 2.0 | 9.0 | 0.00 | 0.00 | 0.00 | 79 | 1009.0 |
| 20260508012542 | 91 | 360 | 2.0 | 6.0 | 0.00 | 0.00 | 0.00 | 79 | 1009.0 |
| 20260508012045 | 92 | 351 | 1.0 | 6.0 | 0.00 | 0.00 | 0.00 | 79 | 1008.9 |
| 20260508011555 | 92 | 47 | 2.0 | 6.0 | 0.00 | 0.00 | 0.00 | 79 | 1008.6 |
| 20260508011039 | 93 | 46 | 2.0 | 6.0 | 0.00 | 0.00 | 0.00 | 79 | 1008.6 |
| 20260508010539 | 94 | 89 | 1.0 | 6.0 | 0.00 | 0.00 | 0.00 | 79 | 1008.5 |
| 20260508010047 | 94 | 360 | 0.0 | 6.0 | 0.00 | 0.00 | 0.00 | 76 | 1008.3 |
| 20260508005542 | 94 | 0 | 0.0 | 5.0 | 0.00 | 0.00 | 0.00 | 76 | 1008.2 |
| 20260508005042 | 94 | 5 | 1.0 | 5.0 | 0.00 | 0.00 | 0.00 | 76 | 1008.2 |
| 20260508004555 | 94 | 49 | 2.0 | 5.0 | 0.00 | 0.00 | 0.00 | 76 | 1008.1 |
| 20260508004042 | 95 | 52 | 0.0 | 3.0 | 0.00 | 0.00 | 0.00 | 76 | 1008.1 |
| 20260508003541 | 95 | 0 | 0.0 | 3.0 | 0.00 | 0.00 | 0.00 | 76 | 1008.0 |
| 20260508003053 | 95 | 0 | 0.0 | 4.0 | 0.00 | 0.00 | 0.00 | 76 | 1008.0 |
| 20260508002545 | 95 | 69 | 1.0 | 6.0 | 0.00 | 0.00 | 0.00 | 76 | 1008.0 |
| 20260508002041 | 95 | 106 | 1.0 | 7.0 | 0.00 | 0.00 | 0.00 | 76 | 1008.1 |
| 20260508001549 | 95 | 49 | 3.0 | 7.0 | 0.00 | 0.00 | 0.00 | 76 | 1008.0 |
| 20260508001041 | 95 | 110 | 3.0 | 7.0 | 0.00 | 0.00 | 0.00 | 76 | 1008.0 |
| 20260508000541 | 95 | 80 | 4.0 | 7.0 | 0.00 | 0.00 | 0.00 | 75 | 1008.1 |
| 20260508000048 | 95 | 26 | 2.0 | 7.0 | 0.00 | 0.00 | 0.00 | 75 | 1008.1 |
| 20260507235540 | 95 | 101 | 3.0 | 7.0 | 0.00 | 0.00 | 0.00 | 75 | 1008.1 |
| 20260507235040 | 95 | 99 | 3.0 | 8.0 | 0.00 | 0.00 | 0.00 | 75 | 1008.0 |
| 20260507234550 | 95 | 74 | 4.0 | 8.0 | 0.00 | 0.00 | 0.00 | 74 | 1007.9 |
| 20260507234040 | 96 | 93 | 4.0 | 10.0 | 0.00 | 0.00 | 0.00 | 74 | 1007.9 |
| 20260507233541 | 96 | 98 | 5.0 | 10.0 | 0.00 | 0.00 | 0.00 | 74 | 1007.9 |
| 20260507233101 | 96 | 119 | 3.0 | 8.0 | 0.00 | 0.00 | 0.00 | 74 | 1007.9 |
| 20260507232542 | 96 | 115 | 3.0 | 8.0 | 0.00 | 0.00 | 0.00 | 74 | 1007.9 |
| 20260507232039 | 96 | 106 | 4.0 | 9.0 | 0.00 | 0.00 | 0.00 | 74 | 1007.9 |
| 20260507231551 | 96 | 80 | 3.0 | 9.0 | 0.00 | 0.00 | 0.00 | 73 | 1007.9 |
| 20260507231041 | 96 | 68 | 3.0 | 9.0 | 0.00 | 0.00 | 0.00 | 73 | 1007.8 |
| 20260507230544 | 96 | 111 | 2.0 | 8.0 | 0.00 | 0.00 | 0.00 | 73 | 1007.8 |
| 20260507230050 | 96 | 93 | 4.0 | 11.0 | 0.00 | 0.00 | 0.00 | 73 | 1007.7 |
| 20260507225542 | 96 | 60 | 6.0 | 11.0 | 0.00 | 0.00 | 0.00 | 73 | 1007.8 |
| 20260507225042 | 96 | 103 | 4.0 | 9.0 | 0.00 | 0.00 | 0.00 | 72 | 1007.8 |
| 20260507224557 | 96 | 84 | 3.0 | 9.0 | 0.00 | 0.00 | 0.00 | 72 | 1007.8 |
| 20260507224043 | 97 | 92 | 5.0 | 9.0 | 0.00 | 0.00 | 0.00 | 72 | 1007.9 |
| 20260507223543 | 97 | 155 | 4.0 | 10.0 | 0.00 | 0.00 | 0.00 | 72 | 1007.9 |
| 20260507223052 | 97 | 100 | 4.0 | 10.0 | 0.00 | 0.00 | 0.00 | 72 | 1007.8 |
| 20260507222542 | 97 | 97 | 6.0 | 10.0 | 0.00 | 0.00 | 0.00 | 71 | 1007.8 |
| 20260507222041 | 97 | 74 | 5.0 | 8.0 | 0.00 | 0.00 | 0.00 | 72 | 1007.8 |
| 20260507221552 | 97 | 115 | 4.0 | 8.0 | 0.00 | 0.00 | 0.00 | 71 | 1007.8 |
| 20260507221045 | 97 | 110 | 2.0 | 8.0 | 0.00 | 0.00 | 0.00 | 72 | 1007.9 |
| 20260507220539 | 97 | 76 | 4.0 | 8.0 | 0.00 | 0.00 | 0.00 | 72 | 1007.9 |
| 20260507220051 | 97 | 94 | 3.0 | 8.0 | 0.00 | 0.00 | 0.00 | 72 | 1007.9 |
| 20260507215543 | 97 | 84 | 3.0 | 9.0 | 0.00 | 0.00 | 0.00 | 72 | 1007.9 |
| 20260507215040 | 97 | 94 | 3.0 | 9.0 | 0.00 | 0.00 | 0.00 | 72 | 1007.9 |
| 20260507214601 | 97 | 101 | 4.0 | 10.0 | 0.00 | 0.00 | 0.00 | 72 | 1007.9 |
| 20260507214041 | 97 | 37 | 4.0 | 10.0 | 0.00 | 0.00 | 0.00 | 72 | 1007.9 |
| 20260507213540 | 97 | 74 | 5.0 | 10.0 | 0.00 | 0.00 | 0.00 | 72 | 1007.9 |